Regional Weather Roundup
Issued by NWS

Home | Current Version | Previous Version | Text Only | Print | Product List | Glossary Off
Versions: 1 2 3 4 5 6 7 8 9 10 11 12 13 14 15 16 17 18 19 20 21 22 23 24 25 26 27 28 29 30 31 32 33 34 35 36 37 38 39 40 41 42 43 44 45 46 47 48 49 50

000
ASUS43 KFSD 290210
RWRSD

WEATHER ROUNDUP FOR SOUTH DAKOTA
NATIONAL WEATHER SERVICE SIOUX FALLS SD
800 PM CST WED JAN 28 2015

NOTE: "FAIR" INDICATES FEW OR NO CLOUDS BELOW 12,000 FEET WITH NO
SIGNIFICANT WEATHER AND/OR OBSTRUCTIONS TO VISIBILITY.


SDZ001>005-009-010-012>017-290300-
NORTHWEST AND NORTH CENTRAL SOUTH DAKOTA

CITY           SKY/WX    TMP DP  RH WIND       PRES   REMARKS
BUFFALO          N/A     34  27  75 NW29G37   30.15R WCI  20
FAITH            N/A     35  28  75 NW35G40   30.15R WCI  21
MOBRIDGE       CLOUDY    35  28  75 NW31G38   30.06R WCI  22
$$

SDZ012>016-024>037-041>051-057-063-072>074-290300-
SOUTHWEST AND SOUTH CENTRAL SOUTH DAKOTA

CITY           SKY/WX    TMP DP  RH WIND       PRES   REMARKS
RAPID CTY ARPT PTCLDY    35  29  78 N35G45    30.17R WCI  21
PIERRE         CLOUDY    36  29  75 NW25G37   30.08R
CUSTER         CLEAR     34  22  61 VRB5      30.16R WCI  30
ELLSWORTH AFB  CLOUDY    36  28  75 N24G38    30.20
PHILIP         CLOUDY    37  30  75 NW31G40   30.16R
PINE RIDGE     MOCLDY    43  30  60 N22G37    30.15R
SPEARFISH      CLOUDY    32  28  86 W17G25    30.25R WCI  21
WINNER         CLOUDY    41  32  70 NW31G43   30.05R
$$

SDZ004>011-016>023-039-040-290300-
NORTHEAST SOUTH DAKOTA

CITY           SKY/WX    TMP DP  RH WIND       PRES   REMARKS
ABERDEEN       CLOUDY    34  30  85 N22G33    30.00R WCI  22
WATERTOWN      CLOUDY    32  31  96 N26G32    29.87R FOG     WCI  18
SISSETON         N/A     33  33 100 N18G29    29.89R WCI  22
$$

SDZ017-020-022-023-036>040-048>070-290300-
SOUTHEAST SOUTH DAKOTA

CITY           SKY/WX    TMP DP  RH WIND       PRES   REMARKS
SIOUX FALLS    CLOUDY    36  33  89 NW7       29.83R
HURON          CLOUDY    34  31  88 N25G32    29.96R WCI  21
CHAMBERLAIN    CLOUDY    35  30  82 NW33G44   30.03R WCI  21
MITCHELL       CLOUDY    38  34  85 N29G47    29.94R
YANKTON        MOCLDY    45  37  76 NW20G26   29.86R
$$

ABBREVIATIONS USED IN REMARKS
   TC - TEMPERATURE IN CELSIUS
  WCI - WIND CHILL INDEX
   HX - HEAT INDEX
  VSB - VISIBILITY




USA.gov is the U.S. government's official web portal to all federal, state and local government web resources and services.